Погода в Элисте

Погода в Элисте : погода сейчас, прогноз погоды и архив. Всё, что Вы хотите узнать о погоде в Элисте!

Поиск расширенной информации на нашем сайте:

Другие новости

Новости СМИ2

Главная страница сайта

Новости сайта

03.07.2017

Напоминаем, что на нашем специализированном сайте Метеоцентр.Азия вы можете получить высокодетализированные автоматические прогнозы погоды по пунктам России, СНГ и мира в авиационном формате (включающие направление и скорость ветра, видимость, явления погоды, количество и форму облачности, нижнюю и верхнюю границу облачности).

Рекомендуем: Батарейка philips LR14 Батарейки LR14 BL, LR20 BL.

Погода в Элисте - сегодня

Время (UTC), дата Ветер
(°,м/с) 
Видим.   Явления Облачность Т
(°С)
Тd
(°С)
f(%) Тe
(°С)
Pmin
(гПа)
dP
(гПа)
Po
(мм)
O2
(г/м3)
Тmin Tmax R s Состояние
почвы
00 18.08.17 070 (В) 10 км    ясно 
+18.8 +5.6 42 +19  1016  -0.2  745  280           
03 18.08.17 060 (СВ) 20000 м    8/0 верхняя 
[Ci]
+18.8 +1.6 32 +19  1016.5  0.5  745  281  +17.6        сухая 
06 18.08.17 080 (В) 6{10}  20000 м    8/0 средняя, верхняя 
[Ac trans|Ci fib]
+26.5 -0.7 17 +27  1016.4  0.4  746  274           
09 18.08.17 090 (В) 8-16{16}  20000 м    8/0 средняя, верхняя 
[Ac trans|Ci fib]
+32.3 -3.8 10 +32  1015.3  -0.7  745  269           
12 18.08.17 100 (В) 7-11{15}  20000 м    8/3 1000 м средняя, верхняя 
[Cu hum|Ac trans|Ci fib]
+33.8 -3 9 +34  1014.6  -0.5  745  267           
15 18.08.17 120 (ЮВ) 7-10  20000 м    6/0 средняя, верхняя 
[Ac trans|Ci fib]
+31 -0.5 13 +31  1015.3  0.5  745  270    +34       
18 18.08.17 200 (Ю) 3{10}  10 км    ясно 
+23.4 +11 46 +26  1017.6  1.8  746  275           
21 18.08.17 100 (В) 10 км    ясно 
+20.9 +8.1 44 +21  1017.7  0.1  746  278           
00 19.08.17 030 (СВ) 10 км    ясно 
+19.1 +9.1 52 +20  1018  0.2  746  279           
03 19.08.17 030 (СВ) 20000 м    3/0 верхняя 
[Ci fib]
+19 +9.1 53 +20  1018.1  0.2  746  280  +18.2        сухая 
06 19.08.17 090 (В) 20000 м    3/0 верхняя 
[Ci fib]
+27.8 +2.6 20 +28  1018.4  0.9  747  273           
09 19.08.17 080 (В) 6{11}  20000 м    8/0 верхняя 
[Ci]
+32.3 -3 10 +32  1017.3  -0.8  746  269           
12 19.08.17 090 (В) 5-11{11}  20000 м    8/0 верхняя 
[Ci fib]
+33.7 -3.1 9 +34  1017.1  -0.3  746  268           
15 19.08.17 090 (В) 6{14}  20000 м    8/0 средняя, верхняя 
[Ac trans|Ci fib]
+31.3 -2.7 11 +31  1016.3  0.2  746  270    +33.9       
18 19.08.17 110 (В) 10 км    6/0 верхняя 
[Ci]
+26.5 -1.6 16 +27  1017.9  1.3  747  274           
21 19.08.17 080 (В) 10 км    ясно 
+23 -1.2 20 +23  1017.9  -0.3  746  277           
00 20.08.17 040 (СВ) 10 км    8/0 верхняя 
[Ci fib]
+21.3 +2.8 29 +21  1017.8  -0.2  746  279           
03 20.08.17 110 (В) 20000 м    9/0 средняя 
[Ac As]
+21.7 +6.9 38 +22  1018  0.3  746  277  +20.7        сухая 
06 20.08.17 120 (ЮВ) 20000 м    10/4 600 м кучево-дожд., средняя 
[Cb cap|Ac und]
+24.6 +5.8 30 +25  1018.3  0.5  747  275           
09 20.08.17 060 (СВ) 6{11}  20000 м  {ливн. осадки}  8/3 1000 м средняя 
[Cu med, cong|Ac As]
+26.3 +10.9 38 +29  1017.1  -1  746  272           
12 20.08.17 070 (В) 9-14{16}  20000 м  {ливн. осадки}  10/5 600 м кучево-дожд., средняя 
[Cb cap|Ac und]
+30 +3.9 19 +30  1015.3  -1.5  745  270           
15 20.08.17 130 (ЮВ) 10-17  20000 м    10/5 600 м кучево-дожд., средняя 
[Cb cap|Ac cuf]
+29.8 +1.7 16 +30  1015.4  745  270    +31.4  0.6     
18 20.08.17 120 (ЮВ) 6{17}  10 км  {ливн. осадки}  10/0 средняя 
[Ac und]
+26.5 +4.3 24 +27  1017.2  1.6  746  273           
21 20.08.17 060 (СВ) 3{12}  10 км  слаб. ливневой дождь  10/5 600 м кучево-дожд., средняя 
[Cb cap|Ac und]
+19.5 +10.8 57 +22  1018.1  0.3  746  279           
00 21.08.17 090 (В) 10 км  {ливн. осадки}  10/0 средняя 
[Ac und]
+21.5 +7 39 +22  1016.9  -1.1  746  277           
Время (UTC), дата Ветер
(°,м/с) 
Видим.   Явления Облачность Т
(°С)
Тd
(°С)
f(%) Тe
(°С)
Pmin
(гПа)
dP
(гПа)
Po
(мм)
O2
(г/м3)
Тmin Tmax R s Состояние
почвы

Для получения пояснительной информации подведите курсор к названию столбца.

ПОГОДА в Элисте - архив

Всё, что Вы хотите узнать о погоде в Элисте - удобно и подробно!

Выберите нужную дату (начиная с 1 января 2015* года) и нажмите кнопку "Найти".
Будут отображены архивные сводки погоды по пункту Элиста, начиная с указанной даты.


Отображать данные в формате CSV (для использования в таблицах Excel)


Внимание! Наш архив погоды предназначен исключительно для личного некоммерческого использования в познавательных целях. Если Вам необходимы официальные справки о состоянии погоды (для производственных, юридических, коммерческих и т.п. целей), обращайтесь в органы Росгидромета.

*Примечание: данная дата относится к архиву по метеостанциям СССР (Россия, СНГ, Балтия).
Архив по метеостанциям Зарубежной Европы и Азии (кроме Китая) хранится 10 дней, по другим регионам земного шара (Китай, Африка, Америка, Австралия, Океания) - 1 день.

Элиста - район местоположения метеостанции


Название, широта, долгота, высота метеостанции:
Элиста 46.4°ш. 44.3°д. 155 м над ур. моря [Российская Федерация]

Дополнительная информация

В oтличие oт бoльшинства пoгoдных сайтoв мы публикуем пoдрoбную метеoинфoрмацию в детальнoм прoфессиoнальнoм фoрмате.

Характеристики температуры и влажнoсти вoздуха измеряются на высoте 2 м в тени вдали oт зданий и деревьев.
Скoрoсть ветра измеряется на высoте 10 м (на урoвне рoста челoвека скoрoсть ветра ниже в 1.5-2 раза). Если метеoстанция нахoдится в гoрoде или в лесу, тo скoрoсть ветра занижена на 2-4 м/с пo сравнению с oткрытым местoм. Скoрoсть ветра над акватoриями крупных рек и oзёр, а также на вершинах хoлмoв на 2-5 м/с выше, чем в oбычных услoвиях.
Атмoсфернoе давление в разных тoчках местнoсти мoжет значительнo oтличаться oт давления на метеoстанции, в зависимoсти oт услoвий рельефа (при пoдъёме на 10 м давление пoнижается примернo на 1 мм рт.ст.).